[[{"header":{"parameterUnit":"m.s-1","parameterCategory":1,"la1":30.2991,"la2":30.254,"lo1":-89.0895,"lo2":-89.0444,"dy":0.0017,"dx":0.0017,"nx":28,"ny":28,"refTime":"2024-08-06T21:00:00:Z","depth":0,"parameterNumber":2,"parameterNumberName":"U-component_of_WINDS"},"data":[0,0,0,0,0,0,0,0,0,0,0,0,0,0,0,0,0,0,0,0,0,0,0,0,0,0,0,0,0,0,0,0,0,0,0,0,0,0,0,0,0,0,0,0,0,0,0,0,0,0,0,0,0,0,0,0,0,0,1.6806,1.6806,0,1.686,1.6861,1.6861,1.687,1.687,1.687,1.6869,1.6925,1.6927,1.6929,0,0,0,0,0,0,0,0,0,0,0,0,0,1.6713,1.6715,1.6806,1.6807,1.6807,1.686,1.6861,1.6861,1.6871,1.687,1.6869,1.6869,1.6925,1.6927,1.6929,0,0,0,0,0,0,0,0,0,0,0,0,0,1.6759,1.6715,1.6806,1.6818,1.682,1.686,1.6861,1.6861,1.6871,1.687,1.6869,1.6869,1.6924,1.6927,1.693,1.6961,0,0,1.6939,1.694,0,0,0,0,0,0,0,0,1.6756,1.6762,1.6816,1.6817,1.6819,1.6858,1.6848,1.6895,1.6871,1.6851,1.6869,1.6868,1.6904,1.6908,1.692,1.6964,1.6966,1.6939,1.6941,1.6942,1.6943,0,0,0,0,0,0,0,1.6753,1.676,1.6827,1.6816,1.6819,1.6822,1.6827,1.6857,1.6881,1.6853,1.6854,1.686,1.6904,1.6917,1.6921,1.6967,1.6939,1.6941,1.6943,1.6944,1.7042,1.7043,0,0,0,0,0,0,1.6747,1.6757,1.6826,1.6829,1.6785,1.6824,1.683,1.6846,1.688,1.6885,1.6861,1.686,1.6912,1.6918,1.6923,1.6964,1.6942,1.6945,1.6946,1.7042,1.7043,1.7044,0,0,0,0,0,0,1.6745,1.6753,1.6823,1.6793,1.6802,1.6826,1.6844,1.6848,1.686,1.6886,1.689,1.6869,1.6912,1.6919,1.6952,1.6966,1.6946,1.6948,1.704,1.7042,1.7043,1.7044,0,0,0,0,0,0,1.6743,1.6752,1.6764,1.6793,1.6804,1.6851,1.6845,1.6849,1.6865,1.6865,1.6895,1.6899,1.6912,1.6948,1.6955,1.6969,1.6951,1.7039,1.7041,1.7043,1.7043,1.7046,1.7048,0,0,0,0,0,1.6739,1.6762,1.6765,1.6773,1.6819,1.6851,1.6858,1.6871,1.6866,1.6878,1.6895,1.6898,1.6963,1.6951,1.6959,1.6975,1.7039,1.7041,1.7042,1.7042,1.7045,1.7047,0,0,0,0,0,0,1.6734,1.6766,1.6769,1.6802,1.6824,1.6853,1.6869,1.6874,1.6898,1.6897,1.6913,1.692,1.6952,1.6967,1.6953,1.7008,1.7001,1.7004,1.6998,1.7,1.7003,1.6999,1.6953,0,0,0,0,0,1.6736,1.6759,1.6787,1.6813,1.6824,1.6845,1.6859,1.6868,1.6892,1.6901,1.692,1.6943,1.6969,1.6985,1.701,1.7045,1.7053,1.706,1.7062,1.7064,1.7067,1.7089,1.7093,1.705,1.705,1.705,0,0,1.6742,1.6763,1.6776,1.6813,1.6831,1.6855,1.6852,1.6878,1.6897,1.6905,1.6938,1.6953,1.698,1.7014,1.703,1.7027,1.7081,1.7067,1.7068,1.707,1.7091,1.7095,1.7099,1.7051,1.7051,1.7051,0,0,1.6765,1.6782,1.6807,1.6825,1.6853,1.6866,1.6872,1.6901,1.6912,1.6945,1.6952,1.6975,1.7018,1.7037,1.7053,1.7085,1.709,1.7093,1.7104,1.7125,1.7128,1.7131,1.7144,1.7148,1.7096,1.7096,1.7096,0,1.6769,1.6805,1.6819,1.6845,1.6862,1.687,1.6896,1.6914,1.6948,1.6959,1.6955,1.7011,1.703,1.707,1.7078,1.709,1.7098,1.709,1.7127,1.713,1.7133,1.7145,1.715,1.7096,1.7096,1.7096,1.7096,0,1.6809,1.6835,1.6851,1.6884,1.6903,1.6929,1.6948,1.6965,1.6972,1.6987,1.7022,1.7044,1.7075,1.7085,1.7092,1.7127,1.7124,1.7123,1.7116,1.7137,1.7149,1.7154,1.7097,1.7097,1.7096,1.7096,0,0,1.6829,1.6871,1.6877,1.6893,1.6924,1.6945,1.6971,1.7001,1.7016,1.704,1.7064,1.7101,1.7101,1.7119,1.7129,1.7147,1.7172,1.7144,1.7145,1.7149,1.7213,1.7214,1.722,1.7175,1.7176,1.7177,1.7212,0,1.6857,1.6904,1.6919,1.6959,1.6984,1.6993,1.7017,1.7039,1.7054,1.7078,1.7094,1.7121,1.7118,1.7129,1.7147,1.7165,1.7186,1.7163,1.7199,1.72,1.7192,1.7226,1.7226,1.7258,1.7216,1.7217,1.7217,0,1.6895,1.692,1.6962,1.6992,1.7003,1.7024,1.7054,1.7076,1.7102,1.7112,1.7132,1.7141,1.7171,1.7162,1.7204,1.7188,1.7204,1.7215,1.7217,1.7221,1.721,1.7232,1.7268,1.7273,1.7225,1.7224,1.7224,0,1.6907,1.6951,1.6983,1.6996,1.7031,1.7046,1.7061,1.7087,1.7105,1.713,1.7142,1.7171,1.7187,1.721,1.7227,1.7219,1.7268,1.726,1.7278,1.7278,1.7288,1.7287,1.7328,1.7297,1.7297,1.7297,1.7297,0,1.6936,1.6962,1.6989,1.7008,1.7038,1.7055,1.7085,1.7101,1.7124,1.7148,1.7158,1.718,1.72,1.7226,1.7239,1.7273,1.728,1.7289,1.7293,1.7289,1.7288,1.73,1.7298,1.7298,1.7298,1.7298,1.7297,0,1.6955,1.6973,1.7008,1.7039,1.7048,1.7069,1.7096,1.7116,1.7131,1.7161,1.717,1.7194,1.7225,1.7244,1.7283,1.7292,1.7329,1.7331,1.732,1.7322,1.7339,1.7338,1.7389,1.7398,1.736,1.736,1.7361,0,1.6972,1.6993,1.7026,1.7043,1.7059,1.7085,1.7103,1.7121,1.714,1.7172,1.7189,1.722,1.7246,1.7295,1.7316,1.7347,1.735,1.7366,1.7355,1.7351,1.7352,1.7351,1.7354,1.7368,1.7369,1.7369,1.7369,0,1.7003,1.7011,1.7037,1.7066,1.7088,1.7112,1.7136,1.7149,1.7171,1.7192,1.7223,1.7243,1.7283,1.7315,1.7347,1.7364,1.7371,1.7373,1.7379,1.7375,1.7368,1.7373,1.7326,1.7371,1.7371,1.7371,1.7371,1.7371,1.7022,1.7041,1.7068,1.7097,1.7117,1.714,1.716,1.7179,1.7205,1.7239,1.7248,1.7281,1.7309,1.7353,1.7371,1.7398,1.7396,1.7404,1.7407,1.7409,1.741,1.7363,1.7404,1.7404,1.7404,1.7404,1.7404,0,1.7054,1.7072,1.7098,1.7132,1.7155,1.7159,1.7186,1.7205,1.7234,1.7259,1.7285,1.7322,1.7353,1.7378,1.741,1.7427,1.7431,1.7435,1.7434,1.7438,1.7409,1.7401,1.7431,1.7431,1.7431,1.7431,1.7431,1.7431,1.7073,1.7106,1.7118,1.7162,1.718,1.7213,1.7228,1.725,1.727,1.7311,1.7336,1.7352,1.7378,1.7412,1.7441,1.7448,1.746,1.7463,1.747,1.7443,1.744,1.7437,1.743,1.7465,1.7465,1.7497,1.7498,1.7498]},{"header":{"parameterUnit":"m.s-1","parameterCategory":1,"la1":30.2991,"la2":30.254,"lo1":-89.0895,"lo2":-89.0444,"dy":0.0017,"dx":0.0017,"nx":28,"ny":28,"refTime":"2024-08-06T21:00:00:Z","depth":0,"parameterNumber":3,"parameterNumberName":"V-component_of_WINDS"},"data":[0,0,0,0,0,0,0,0,0,0,0,0,0,0,0,0,0,0,0,0,0,0,0,0,0,0,0,0,0,0,0,0,0,0,0,0,0,0,0,0,0,0,0,0,0,0,0,0,0,0,0,0,0,0,0,0,0,0,-2.0612,-2.0612,0,-2.0646,-2.0646,-2.0647,-2.066,-2.066,-2.066,-2.0659,-2.0693,-2.0694,-2.0695,0,0,0,0,0,0,0,0,0,0,0,0,0,-2.0558,-2.0559,-2.0612,-2.0612,-2.0612,-2.0646,-2.0646,-2.0647,-2.066,-2.066,-2.066,-2.0659,-2.0693,-2.0694,-2.0695,0,0,0,0,0,0,0,0,0,0,0,0,0,-2.0585,-2.0559,-2.0612,-2.0623,-2.0624,-2.0646,-2.0646,-2.0647,-2.066,-2.066,-2.0659,-2.0659,-2.0693,-2.0694,-2.0696,-2.0708,0,0,-2.07,-2.0701,0,0,0,0,0,0,0,0,-2.0584,-2.0587,-2.0621,-2.0622,-2.0624,-2.0648,-2.064,-2.0667,-2.066,-2.0646,-2.0659,-2.0659,-2.0678,-2.0681,-2.0688,-2.0709,-2.0711,-2.07,-2.0701,-2.0702,-2.0702,0,0,0,0,0,0,0,-2.0582,-2.0586,-2.0625,-2.0621,-2.0623,-2.0627,-2.063,-2.0645,-2.0663,-2.0647,-2.0648,-2.0652,-2.0679,-2.0686,-2.0689,-2.0711,-2.07,-2.0702,-2.0702,-2.0703,-2.0748,-2.0748,0,0,0,0,0,0,-2.0578,-2.0584,-2.0624,-2.0626,-2.0603,-2.0628,-2.0632,-2.0641,-2.0663,-2.0666,-2.0653,-2.0653,-2.0684,-2.0687,-2.069,-2.0708,-2.0702,-2.0703,-2.0704,-2.0747,-2.0748,-2.0748,0,0,0,0,0,0,-2.0577,-2.0582,-2.0623,-2.0606,-2.0611,-2.0629,-2.0639,-2.0641,-2.0649,-2.0667,-2.067,-2.0657,-2.0684,-2.0688,-2.0704,-2.0709,-2.0704,-2.0705,-2.0747,-2.0748,-2.0748,-2.0742,0,0,0,0,0,0,-2.0575,-2.0581,-2.0585,-2.0606,-2.0612,-2.0636,-2.0639,-2.0642,-2.0651,-2.0652,-2.0671,-2.0674,-2.0684,-2.0702,-2.0706,-2.0711,-2.0706,-2.0747,-2.0747,-2.0748,-2.0742,-2.0742,-2.0743,0,0,0,0,0,-2.0573,-2.0582,-2.0586,-2.059,-2.0618,-2.0636,-2.064,-2.0651,-2.0652,-2.0657,-2.0669,-2.0674,-2.0708,-2.0703,-2.0708,-2.0714,-2.0746,-2.0747,-2.0748,-2.0742,-2.0742,-2.0743,0,0,0,0,0,0,-2.056,-2.0584,-2.0589,-2.0604,-2.0618,-2.0638,-2.0645,-2.0651,-2.0665,-2.0665,-2.0679,-2.0683,-2.0698,-2.0707,-2.0702,-2.0728,-2.0728,-2.0729,-2.0722,-2.0722,-2.0722,-2.072,-2.0708,0,0,0,0,0,-2.0559,-2.0572,-2.0592,-2.0604,-2.0611,-2.0627,-2.0635,-2.0643,-2.0658,-2.0664,-2.0677,-2.0691,-2.0705,-2.0714,-2.0728,-2.0743,-2.0749,-2.075,-2.075,-2.075,-2.0752,-2.0763,-2.0764,-2.075,-2.075,-2.075,0,0,-2.0557,-2.0572,-2.0579,-2.0602,-2.0613,-2.0627,-2.0631,-2.0645,-2.0655,-2.0665,-2.0682,-2.0692,-2.0709,-2.0726,-2.0734,-2.0734,-2.0757,-2.0751,-2.0751,-2.0752,-2.0764,-2.0765,-2.0766,-2.0751,-2.0751,-2.0751,0,0,-2.056,-2.0572,-2.0584,-2.0597,-2.0615,-2.0626,-2.0629,-2.0649,-2.0656,-2.0674,-2.0682,-2.0695,-2.0719,-2.0731,-2.074,-2.0752,-2.0757,-2.0756,-2.0757,-2.0768,-2.0769,-2.077,-2.0776,-2.0778,-2.0757,-2.0757,-2.0757,0,-2.0555,-2.0576,-2.0589,-2.0603,-2.0614,-2.0625,-2.0638,-2.0649,-2.0671,-2.0678,-2.0678,-2.071,-2.0722,-2.0743,-2.0746,-2.0752,-2.0757,-2.0753,-2.0768,-2.0769,-2.0771,-2.0776,-2.0778,-2.0757,-2.0757,-2.0757,-2.0757,0,-2.057,-2.0584,-2.0591,-2.0614,-2.0625,-2.0638,-2.0654,-2.0664,-2.0672,-2.0683,-2.0702,-2.0717,-2.0735,-2.0741,-2.0747,-2.0763,-2.0763,-2.0765,-2.0765,-2.0771,-2.0777,-2.0779,-2.0756,-2.0756,-2.0756,-2.0756,0,0,-2.0564,-2.0596,-2.0598,-2.061,-2.0632,-2.0644,-2.0658,-2.0677,-2.0686,-2.0701,-2.0715,-2.0736,-2.0739,-2.075,-2.0759,-2.0768,-2.0778,-2.077,-2.077,-2.0772,-2.0799,-2.0798,-2.08,-2.0782,-2.0783,-2.0783,-2.0798,0,-2.0571,-2.0598,-2.0611,-2.0633,-2.0647,-2.066,-2.0673,-2.0688,-2.07,-2.0714,-2.0727,-2.0742,-2.0744,-2.0751,-2.0761,-2.0775,-2.0784,-2.0774,-2.0796,-2.0796,-2.0792,-2.0802,-2.08,-2.0814,-2.08,-2.08,-2.0801,0,-2.0582,-2.0599,-2.0622,-2.0646,-2.0652,-2.0664,-2.0684,-2.0697,-2.0716,-2.0723,-2.0737,-2.0746,-2.0763,-2.0762,-2.0786,-2.0779,-2.0789,-2.0797,-2.0798,-2.0801,-2.0799,-2.0807,-2.0818,-2.082,-2.0804,-2.0803,-2.0803,0,-2.0578,-2.0606,-2.0624,-2.0633,-2.0661,-2.0669,-2.068,-2.0699,-2.0711,-2.0728,-2.0736,-2.0755,-2.0765,-2.078,-2.0794,-2.0792,-2.0818,-2.0817,-2.0826,-2.0825,-2.0831,-2.083,-2.0845,-2.0835,-2.0835,-2.0835,-2.0835,0,-2.0584,-2.0598,-2.0623,-2.0634,-2.0651,-2.0667,-2.0683,-2.0696,-2.0713,-2.0727,-2.0739,-2.0752,-2.077,-2.0786,-2.0797,-2.0817,-2.0821,-2.0829,-2.0832,-2.0828,-2.0827,-2.0835,-2.0835,-2.0836,-2.0836,-2.0836,-2.0836,0,-2.0582,-2.0599,-2.062,-2.0645,-2.0651,-2.0663,-2.0684,-2.0696,-2.0709,-2.0728,-2.0733,-2.0753,-2.0773,-2.0789,-2.0814,-2.0822,-2.0843,-2.0846,-2.0837,-2.0839,-2.0847,-2.0847,-2.0868,-2.0872,-2.0859,-2.0859,-2.0859,0,-2.0585,-2.0597,-2.0624,-2.0635,-2.0647,-2.0664,-2.0677,-2.0694,-2.0706,-2.073,-2.0739,-2.076,-2.0778,-2.0809,-2.0826,-2.0846,-2.085,-2.0856,-2.0853,-2.085,-2.0852,-2.0852,-2.0854,-2.0857,-2.0857,-2.0857,-2.0857,0,-2.059,-2.0599,-2.0616,-2.0638,-2.0653,-2.067,-2.0688,-2.0696,-2.0717,-2.073,-2.0751,-2.0765,-2.0793,-2.0814,-2.0836,-2.0848,-2.0857,-2.0858,-2.0861,-2.0858,-2.0853,-2.0857,-2.0839,-2.0857,-2.0857,-2.0857,-2.0857,-2.0857,-2.0591,-2.0603,-2.0625,-2.0645,-2.0661,-2.0678,-2.0691,-2.0707,-2.0725,-2.0749,-2.0758,-2.078,-2.0801,-2.0832,-2.0845,-2.0863,-2.0864,-2.0868,-2.0869,-2.087,-2.0871,-2.085,-2.0867,-2.0867,-2.0867,-2.0867,-2.0867,0,-2.0598,-2.0613,-2.0632,-2.0657,-2.0674,-2.0681,-2.0702,-2.0715,-2.0734,-2.0753,-2.0771,-2.0797,-2.0818,-2.0838,-2.086,-2.0871,-2.0876,-2.0876,-2.0876,-2.0879,-2.0868,-2.0863,-2.0873,-2.0873,-2.0873,-2.0873,-2.0873,-2.0873,-2.0603,-2.0624,-2.0636,-2.0666,-2.0681,-2.0703,-2.0715,-2.0731,-2.0747,-2.0775,-2.0793,-2.0807,-2.0827,-2.0851,-2.0872,-2.0877,-2.0885,-2.0885,-2.0892,-2.0881,-2.088,-2.0879,-2.0875,-2.0887,-2.0887,-2.0902,-2.0902,-2.0903]}]]